Wind_Speed
72 77 84 88 94 100 99 88 84 67 67 59 70 74 83 85 73 75 67 61 59 60 57 56 53 54 51 49 50 40 40 32 35 34 32 30 24 23 25 25 26 25 26 24 25 22 21 23 24 21 20 18 16 16
51 70 74 81 86 91 95 94 85 66 61 68 65 64 68 75 74 74 73 67 61 62 60 57 54 51 49 46 44 42 40 37 37 37 34 34 28 24 24 25 29 27 28 27 26 23 22 24 27 25 24 22 20 19
40 48 68 72 79 84 90 91 88 77 66 64 61 61 65 74 69 74 75 71 69 69 68 65 61 56 51 52 50 47 43 43 40 37 35 35 31 26 24 23 24 29 30 30 29 23 24 23 30 28 25 24 23 21
45 41 49 66 72 79 87 84 91 72 72 62 61 57 62 57 58 60 65 73 74 72 70 66 63 59 54 53 51 49 50 45 36 37 36 32 30 30 26 29 20 28 32 37 32 25 28 26 30 30 27 26 25 23
50 46 41 51 67 73 81 83 76 87 81 79 65 58 58 57 52 52 55 63 75 74 70 69 63 62 58 55 54 56 52 46 42 41 36 33 36 36 33 27 9 26 33 40 41 34 34 28 31 27 25 26 25 26
51 49 47 44 58 65 71 79 74 75 89 86 68 56 60 67 62 57 56 53 52 63 64 65 65 61 60 60 60 58 57 53 45 39 40 40 36 39 38 25 12 25 39 43 43 36 36 35 30 27 26 27 28 25
52 52 50 47 53 63 66 73 73 73 80 85 70 62 60 66 58 51 48 44 41 45 54 57 57 61 59 57 56 52 48 46 44 41 40 39 37 41 40 19 21 37 42 42 43 38 37 38 35 34 31 29 27 24
43 49 49 45 47 55 63 69 73 73 76 84 65 61 64 58 48 50 44 45 40 42 46 52 54 51 51 50 44 44 46 46 48 46 41 38 40 41 35 15 24 36 42 40 39 36 36 37 36 32 31 29 26 24
34 38 46 44 43 47 56 66 70 72 76 90 80 66 60 52 63 54 46 52 55 51 44 45 46 44 42 43 44 43 44 47 47 48 44 41 43 44 24 24 32 41 44 38 41 38 35 33 33 33 30 27 25 25
30 33 35 37 40 42 48 59 63 67 72 81 81 84 81 66 60 45 57 62 59 58 54 48 43 42 35 37 40 42 42 45 52 48 44 45 43 26 27 36 42 49 36 31 33 35 33 31 33 33 30 29 25 24
28 29 33 34 35 38 46 53 58 62 68 74 73 75 79 67 61 59 65 68 62 58 55 51 45 42 38 36 35 38 43 45 47 49 47 44 38 18 32 41 48 50 29 29 29 30 31 31 30 29 31 29 27 25
25 28 29 32 35 36 42 50 48 56 63 67 68 69 64 65 72 81 73 72 62 52 54 51 46 41 44 42 42 43 44 44 47 46 45 39 19 24 36 47 49 34 30 29 26 28 29 28 27 28 29 29 28 27
19 27 32 32 33 37 42 43 40 44 55 60 64 70 71 75 71 76 84 61 56 54 47 48 52 51 48 44 47 43 43 45 43 41 37 30 17 35 48 42 37 32 30 29 30 28 26 26 27 28 29 30 30 31
21 24 32 35 32 39 46 46 44 46 56 62 68 70 71 73 74 82 79 60 46 42 40 44 49 55 51 46 42 40 40 38 40 42 36 17 37 44 41 36 33 33 32 29 27 25 24 25 29 32 33 36 38 39
21 26 32 34 34 40 49 48 48 53 65 53 66 68 65 69 64 59 63 57 45 42 45 45 50 47 44 45 41 39 35 37 36 29 23 33 38 36 35 36 33 27 26 25 22 23 25 29 34 38 39 38 37 37
20 27 31 32 34 47 51 49 50 56 66 57 70 84 67 61 62 60 59 61 56 52 50 51 56 54 48 44 37 33 33 29 24 35 33 32 34 33 31 28 24 23 23 20 21 24 30 32 32 33 36 40 43 44
16 24 29 32 39 48 47 48 51 56 71 61 44 57 36 45 60 55 59 63 63 60 57 57 52 46 42 39 38 29 23 22 29 30 32 30 28 25 24 24 23 21 20 20 23 27 26 27 32 40 47 44 39 38
17 23 30 36 44 50 48 46 52 56 49 66 48 40 43 52 65 53 55 58 59 61 60 55 49 46 41 36 26 24 32 32 34 31 25 25 25 22 23 22 20 19 19 21 21 20 22 25 35 37 28 25 22 24
22 20 30 39 45 50 42 52 47 54 45 40 50 49 51 57 59 61 60 62 60 58 52 49 51 46 35 27 25 25 33 33 29 23 21 22 21 20 20 20 18 17 18 16 11 11 15 20 28 11 3 12 20 18
22 25 34 41 48 47 43 43 51 46 44 33 38 38 48 52 57 59 60 56 52 53 55 53 45 39 31 25 28 33 32 26 22 18 19 20 19 21 22 20 17 15 15 9 7 10 11 14 19 17 4 11 20 22
25 29 41 46 45 40 41 38 39 50 38 35 41 36 46 52 50 51 53 52 53 55 52 42 38 31 25 23 29 32 27 24 22 23 24 22 21 23 22 20 16 16 15 10 9 7 8 8 4 15 18 21 21 22
32 31 46 43 44 44 34 43 35 56 38 35 43 41 38 44 40 40 49 56 55 49 47 40 33 29 26 31 34 30 25 21 21 22 19 17 21 22 21 17 15 14 14 11 8 5 7 5 1 7 13 14 13 13
32 39 46 42 47 50 31 38 43 35 44 41 47 54 52 47 44 42 52 55 54 49 46 40 35 29 31 33 30 23 21 21 20 21 19 20 24 21 19 16 13 11 14 12 9 5 5 5 6 6 6 8 11 12
35 36 38 40 46 49 29 28 40 41 49 40 39 45 52 54 51 50 57 57 52 48 43 43 36 35 38 33 27 26 24 24 24 23 20 23 26 23 20 16 13 10 13 12 10 11 11 9 8 8 8 7 8 9
30 37 37 39 46 49 40 29 33 38 45 51 35 39 47 49 55 59 52 51 47 44 47 46 42 41 40 36 33 29 26 26 26 25 24 27 27 22 20 18 14 9 9 14 13 13 12 12 10 9 9 9 8 9
30 35 38 39 41 50 49 29 26 29 38 54 43 34 33 42 62 65 58 53 46 39 37 45 46 46 42 38 33 29 28 29 27 22 26 30 28 25 24 21 18 12 7 7 13 14 15 14 13 12 10 9 10 10
40 12 35 37 34 45 45 37 32 27 35 51 49 42 35 43 62 70 65 56 44 41 37 45 46 45 37 33 33 29 31 32 30 29 34 35 32 29 26 23 20 15 10 6 7 13 16 16 15 14 13 11 10 10
32 31 23 38 30 48 40 35 37 43 38 42 47 50 49 50 57 65 68 56 50 49 43 41 40 37 40 39 36 33 34 35 34 32 37 40 37 31 27 25 22 17 13 10 9 9 13 16 16 16 15 13 12 11
35 24 33 38 33 42 47 36 22 27 32 38 41 37 42 49 50 53 56 52 53 52 45 44 43 41 46 45 39 35 34 39 38 31 32 35 34 29 25 25 25 23 20 15 12 9 10 11 12 12 11 12 12 12
31 23 28 38 38 36 30 28 29 28 32 32 35 31 38 47 55 45 44 46 52 52 45 38 41 40 43 42 37 37 36 40 36 30 35 35 30 31 30 30 30 27 23 20 17 14 12 10 10 10 10 10 9 8
41 28 23 29 30 27 31 31 30 35 40 42 38 31 30 39 43 42 42 44 47 53 50 45 44 37 40 43 39 40 40 40 35 31 37 43 44 42 38 34 31 28 26 24 22 20 19 17 15 12 11 10 9 9
42 35 23 19 28 30 30 28 27 30 34 46 46 34 27 27 28 40 44 43 42 46 49 47 42 37 36 47 41 35 35 34 33 32 37 42 41 39 36 33 31 30 29 27 26 24 23 21 19 19 18 15 13 12
39 41 31 25 24 23 24 22 21 19 30 46 52 48 44 32 29 29 31 37 42 48 49 49 47 43 40 41 42 39 36 35 39 41 43 43 41 40 38 34 32 31 31 30 29 28 26 24 24 23 21 19 18 17
Wind_Direction
230 230 230 229 227 228 231 224 221 226 226 228 229 232 232 234 231 236 235 238 245 250 244 239 246 250 255 264 270 260 271 281 283 279 273 275 276 285 293 300 300 299 294 288 285 286 283 278 276 275 277 278 279 283
233 230 230 229 228 227 228 225 219 220 230 228 231 226 231 232 233 234 238 237 237 239 241 248 250 252 259 261 259 263 270 275 282 277 271 270 271 273 281 290 296 298 295 290 285 283 280 278 276 275 276 279 277 278
223 230 229 228 227 227 226 227 221 219 210 222 219 227 230 232 234 237 237 233 235 240 242 247 247 250 254 252 253 260 270 276 276 272 270 267 263 272 284 290 287 291 292 290 283 283 276 270 272 273 273 273 275 276
220 221 228 226 226 224 225 226 223 209 209 217 215 219 226 225 228 236 241 236 237 237 242 245 246 247 247 247 250 258 265 271 267 273 271 266 261 270 282 289 291 286 287 283 282 282 273 269 265 270 271 271 273 274
220 220 219 225 224 221 221 224 223 223 217 210 218 214 221 223 224 231 232 238 234 232 237 241 243 242 241 245 250 259 266 268 268 268 268 268 263 266 273 283 289 284 284 279 279 278 279 274 272 273 268 265 265 262
223 222 219 219 222 220 218 220 219 218 215 213 221 214 224 224 227 229 231 229 233 240 239 241 239 237 242 247 254 258 263 266 265 265 264 267 269 263 266 278 270 260 263 271 276 284 283 284 283 277 270 263 262 263
225 225 222 219 220 218 215 215 217 215 218 213 205 205 214 217 220 223 227 222 227 233 237 240 243 243 245 251 253 251 252 256 260 260 259 263 268 265 269 296 243 254 259 263 272 282 285 285 285 283 279 267 264 265
224 224 223 222 221 216 212 212 213 211 211 201 197 202 206 212 217 219 217 216 226 234 232 235 236 237 239 243 243 245 250 251 253 254 254 262 263 265 272 280 266 267 269 273 275 280 283 284 287 284 276 268 262 259
224 225 224 220 221 217 212 209 211 209 208 211 205 195 199 211 215 219 217 227 232 228 223 221 228 231 231 237 240 244 245 249 252 253 256 257 257 261 292 289 276 272 273 279 280 284 282 281 276 272 270 265 259 252
224 222 220 220 220 215 210 209 208 207 207 209 214 220 211 207 210 211 219 220 218 218 221 220 223 229 231 233 237 242 244 251 251 253 256 257 263 270 291 280 277 275 286 281 272 275 276 272 268 269 267 263 261 254
223 220 220 217 217 214 204 206 206 206 206 207 208 211 219 214 210 219 229 223 225 216 219 220 226 228 233 234 239 244 249 253 255 255 258 261 265 291 276 275 269 273 285 276 274 274 271 268 264 263 264 266 264 261
226 219 215 216 215 210 198 199 200 204 205 205 205 207 209 206 220 221 220 220 220 218 222 228 232 236 238 242 244 247 250 254 255 260 269 264 291 281 267 257 264 285 282 280 273 268 263 260 259 259 263 265 264 262
230 223 217 215 213 205 193 194 193 194 200 198 198 200 208 211 206 216 220 216 215 216 218 225 232 234 235 236 241 246 249 251 256 264 269 268 284 260 255 264 272 276 275 269 265 262 260 261 265 268 266 268 267 265
231 222 213 208 210 200 191 187 186 185 188 190 192 197 207 216 224 229 216 209 213 222 228 227 230 225 229 236 244 251 251 252 259 263 267 277 254 253 261 265 268 267 266 262 255 260 266 270 270 273 274 273 272 268
229 214 205 205 203 195 186 184 187 188 180 185 197 208 215 213 214 215 223 217 208 217 219 220 218 221 234 239 241 244 248 253 256 266 265 243 254 260 263 261 261 260 257 253 260 267 272 274 278 279 277 274 269 266
213 206 202 201 196 185 184 186 194 191 187 193 202 204 212 216 212 214 209 216 211 215 220 221 224 228 233 237 241 243 248 257 265 249 253 258 258 263 260 257 253 248 250 262 268 275 281 283 281 282 284 278 269 261
209 201 198 194 189 184 184 194 196 197 191 196 204 211 214 209 205 209 208 205 213 218 217 218 221 228 232 241 235 235 244 236 244 250 250 261 265 260 254 250 247 250 260 265 278 282 282 291 297 297 290 276 262 248
192 196 199 194 190 185 186 194 195 187 198 201 205 210 213 209 203 201 201 202 208 213 216 226 230 231 237 236 225 234 241 240 242 248 256 255 250 242 240 241 247 253 257 277 280 285 296 307 311 305 292 263 230 205
195 202 199 192 187 181 192 193 192 202 200 197 204 202 205 207 208 206 207 212 218 227 230 228 227 229 227 209 194 219 232 238 244 248 250 238 241 237 226 229 236 249 274 272 282 301 320 332 339 306 280 168 167 184
200 206 197 187 186 187 195 204 202 205 201 193 192 196 193 192 199 199 204 211 218 219 217 215 214 206 211 230 215 219 227 239 242 226 225 229 235 227 218 221 227 253 265 255 282 309 338 336 7 40 187 153 163 165
198 203 193 185 186 192 194 195 210 203 195 197 191 188 195 199 202 203 205 209 214 212 208 205 201 206 211 205 211 221 227 233 222 207 214 221 221 213 215 217 229 255 248 242 266 299 326 319 54 83 95 117 135 144
197 198 190 190 188 186 189 195 191 201 200 199 195 195 195 201 202 209 208 211 209 203 200 196 202 205 195 199 209 216 222 224 205 206 210 218 212 210 212 215 231 256 233 227 239 277 300 269 170 132 127 123 129 148
193 189 192 189 184 178 172 184 193 196 194 195 199 203 201 198 202 203 211 211 202 197 195 196 203 197 192 199 210 213 217 203 200 204 216 215 208 205 207 214 232 254 222 213 218 214 191 193 172 160 156 168 170 176
187 187 190 192 187 185 186 184 196 200 196 194 199 202 203 204 203 206 210 205 202 206 202 197 183 181 189 196 202 211 210 197 197 206 219 212 203 201 200 208 226 242 214 210 209 192 180 186 192 171 163 173 179 177
192 192 190 185 188 189 192 181 183 197 201 200 200 202 208 210 211 209 204 198 200 200 198 194 177 184 188 191 202 206 202 195 197 203 209 206 205 199 199 205 218 229 218 207 201 204 197 188 198 193 176 168 171 178
178 200 203 199 199 200 199 189 186 195 203 206 206 208 211 213 211 211 205 195 189 193 204 188 181 188 189 193 198 202 198 194 197 203 206 200 199 195 200 204 213 216 221 204 211 214 208 202 203 207 206 202 203 209
186 178 198 195 199 200 203 203 200 208 203 201 208 215 219 220 214 202 198 190 194 205 210 199 187 191 192 197 203 204 201 194 194 199 199 200 203 201 199 202 208 205 204 183 184 209 210 209 211 216 219 218 220 227
198 210 210 191 198 199 201 206 218 225 217 210 205 212 219 221 219 211 204 210 220 216 212 208 202 200 194 192 199 199 198 199 204 211 206 200 199 202 199 202 206 204 196 183 168 171 194 204 209 215 220 223 227 235
204 198 182 189 202 200 205 215 225 221 212 213 210 213 219 215 217 219 220 215 208 209 213 210 206 201 199 199 199 200 203 204 207 211 209 204 202 201 201 204 208 206 205 202 197 185 171 170 178 188 199 212 219 229
195 198 192 188 193 196 202 213 223 213 208 205 210 218 214 214 218 221 222 214 206 207 207 211 215 206 201 199 201 206 209 208 207 208 202 199 199 202 202 205 208 209 213 215 215 211 209 204 194 190 186 185 192 199
203 208 192 192 199 202 198 201 203 203 204 210 205 206 208 210 208 208 212 218 217 210 208 211 210 209 199 198 204 209 209 209 204 203 205 204 201 200 202 204 205 208 214 217 218 217 219 225 233 235 227 222 218 213
206 205 202 196 188 193 194 197 203 210 207 212 209 202 202 203 209 216 212 208 208 213 213 215 216 213 203 198 202 210 216 211 201 204 209 212 210 212 210 206 204 206 212 217 219 220 223 227 232 237 240 243 246 247
201 202 206 192 185 186 190 196 201 211 214 208 214 212 210 199 182 185 205 214 216 213 212 210 207 209 210 213 216 215 211 204 201 200 204 207 208 211 211 209 208 212 214 219 223 225 225 229 234 237 241 246 247 249
Height
5434 5445 5459 5473 5489 5503 5519 5537 5550 5568 5579 5587 5598 5609 5621 5632 5641 5650 5664 5671 5678 5684 5695 5703 5707 5712 5716 5719 5722 5724 5726 5728 5725 5726 5725 5726 5727 5725 5724 5723 5721 5720 5717 5716 5715 5716 5718 5716 5713 5714 5713 5711 5711 5710
5416 5427 5439 5452 5467 5483 5498 5515 5534 5551 5560 5573 5585 5595 5604 5615 5625 5634 5645 5655 5663 5668 5678 5687 5693 5698 5704 5707 5709 5711 5716 5718 5716 5717 5717 5717 5719 5719 5717 5718 5715 5714 5712 5710 5710 5710 5710 5709 5706 5707 5707 5707 5706 5705
5402 5410 5421 5433 5447 5463 5477 5494 5515 5533 5544 5557 5571 5580 5589 5600 5608 5619 5630 5638 5645 5654 5662 5670 5679 5686 5691 5694 5696 5699 5705 5706 5706 5707 5706 5707 5709 5711 5711 5711 5711 5706 5703 5702 5700 5703 5701 5701 5699 5700 5701 5701 5700 5699
5390 5397 5405 5416 5429 5444 5459 5477 5497 5513 5526 5541 5554 5566 5576 5586 5596 5604 5614 5623 5629 5639 5644 5655 5665 5671 5678 5681 5685 5688 5692 5694 5695 5697 5695 5698 5701 5701 5702 5702 5706 5700 5695 5687 5692 5695 5692 5693 5691 5691 5693 5694 5694 5693
5377 5385 5393 5402 5413 5428 5444 5459 5476 5494 5512 5526 5538 5550 5564 5574 5583 5590 5598 5606 5612 5623 5629 5638 5649 5656 5662 5668 5673 5675 5678 5681 5683 5685 5686 5688 5690 5689 5690 5695 5701 5694 5688 5679 5677 5681 5682 5685 5684 5685 5685 5685 5686 5685
5366 5373 5381 5389 5399 5412 5428 5443 5459 5475 5492 5508 5525 5537 5550 5561 5566 5575 5582 5592 5601 5606 5613 5620 5631 5640 5648 5656 5661 5663 5666 5668 5670 5674 5675 5676 5681 5678 5676 5685 5691 5686 5676 5670 5670 5674 5675 5675 5676 5676 5676 5676 5677 5678
5356 5362 5370 5377 5386 5398 5412 5427 5442 5459 5477 5496 5511 5524 5536 5546 5553 5566 5577 5589 5593 5597 5601 5607 5617 5629 5637 5642 5646 5650 5654 5657 5660 5662 5664 5666 5669 5664 5662 5680 5677 5671 5668 5665 5664 5666 5668 5666 5668 5667 5667 5667 5668 5669
5346 5352 5359 5367 5374 5385 5399 5413 5428 5445 5461 5482 5496 5511 5521 5535 5542 5550 5562 5571 5575 5580 5587 5594 5603 5615 5623 5629 5633 5637 5642 5646 5648 5650 5653 5657 5655 5653 5656 5669 5667 5662 5657 5659 5659 5658 5659 5658 5658 5658 5657 5658 5660 5661
5338 5344 5350 5357 5365 5374 5386 5400 5415 5432 5449 5465 5481 5496 5507 5511 5525 5542 5551 5554 5559 5569 5577 5586 5596 5605 5614 5617 5621 5625 5629 5633 5636 5637 5643 5646 5642 5641 5656 5655 5652 5647 5647 5653 5649 5648 5648 5649 5647 5647 5647 5649 5651 5651
5330 5336 5342 5348 5356 5364 5375 5388 5403 5419 5436 5451 5465 5472 5483 5495 5516 5528 5528 5529 5541 5553 5568 5578 5586 5593 5605 5609 5611 5615 5619 5622 5621 5626 5629 5630 5631 5646 5646 5640 5636 5630 5639 5640 5638 5638 5637 5638 5636 5636 5638 5639 5642 5642
5323 5328 5334 5341 5348 5356 5366 5378 5391 5405 5417 5431 5445 5458 5472 5485 5500 5504 5505 5513 5528 5545 5560 5572 5579 5586 5594 5600 5604 5606 5606 5609 5611 5615 5617 5620 5624 5639 5634 5627 5620 5618 5629 5628 5628 5628 5627 5627 5626 5627 5628 5630 5631 5632
5316 5322 5328 5334 5340 5349 5358 5368 5379 5391 5405 5422 5437 5453 5458 5470 5475 5482 5483 5497 5523 5539 5556 5566 5575 5578 5583 5589 5592 5595 5596 5599 5602 5605 5607 5612 5626 5623 5619 5609 5609 5617 5618 5618 5618 5617 5616 5616 5617 5618 5619 5620 5620 5621
5310 5315 5321 5327 5334 5342 5351 5362 5373 5384 5396 5413 5424 5436 5438 5446 5452 5453 5457 5493 5518 5535 5547 5558 5562 5566 5571 5576 5578 5584 5587 5590 5595 5598 5601 5609 5613 5605 5596 5603 5607 5607 5608 5608 5608 5607 5607 5607 5608 5609 5610 5611 5612 5612
5304 5308 5313 5320 5327 5335 5345 5356 5368 5379 5389 5401 5412 5420 5425 5427 5432 5444 5487 5512 5521 5530 5539 5546 5551 5557 5564 5568 5571 5574 5579 5583 5585 5591 5596 5603 5591 5587 5592 5597 5599 5598 5598 5599 5600 5600 5600 5600 5600 5600 5600 5600 5599 5599
5298 5302 5307 5314 5321 5330 5341 5352 5362 5371 5382 5391 5399 5406 5412 5422 5444 5463 5483 5497 5510 5520 5527 5534 5540 5548 5554 5557 5562 5566 5570 5574 5579 5587 5589 5575 5580 5585 5588 5589 5589 5590 5592 5592 5593 5593 5593 5591 5591 5588 5586 5585 5585 5585
5292 5296 5303 5310 5317 5327 5337 5348 5356 5364 5373 5381 5386 5394 5409 5426 5443 5459 5475 5488 5500 5509 5513 5520 5527 5536 5543 5548 5554 5559 5564 5570 5576 5565 5566 5573 5576 5580 5581 5581 5582 5584 5585 5586 5586 5585 5584 5582 5579 5575 5572 5570 5568 5568
5289 5295 5300 5307 5315 5324 5335 5343 5350 5357 5364 5372 5387 5399 5410 5421 5438 5453 5463 5476 5488 5496 5503 5511 5520 5528 5534 5540 5547 5554 5560 5561 5557 5559 5562 5567 5571 5573 5575 5576 5577 5579 5580 5580 5580 5577 5575 5572 5567 5561 5554 5547 5547 5550
5288 5292 5297 5302 5309 5317 5328 5338 5346 5356 5365 5375 5384 5397 5407 5418 5430 5442 5453 5462 5473 5484 5494 5503 5512 5519 5527 5535 5544 5548 5546 5548 5550 5553 5558 5560 5564 5567 5569 5571 5573 5575 5575 5575 5573 5572 5569 5563 5556 5543 5534 5527 5533 5540
5286 5289 5293 5299 5309 5319 5328 5335 5345 5352 5359 5373 5384 5394 5401 5413 5423 5432 5442 5452 5462 5470 5479 5487 5498 5514 5524 5531 5533 5534 5536 5539 5543 5549 5553 5556 5559 5561 5563 5566 5569 5570 5570 5570 5569 5567 5563 5558 5549 5538 5535 5533 5535 5542
5283 5287 5292 5299 5308 5316 5324 5332 5340 5346 5358 5369 5377 5386 5395 5405 5415 5423 5432 5440 5448 5457 5467 5486 5501 5511 5515 5516 5520 5523 5528 5533 5539 5544 5548 5550 5554 5556 5559 5562 5564 5566 5566 5566 5564 5563 5559 5557 5551 5541 5537 5539 5542 5547
5278 5283 5291 5298 5306 5315 5324 5330 5337 5346 5356 5364 5374 5380 5389 5397 5404 5411 5421 5430 5439 5452 5470 5484 5491 5496 5502 5507 5512 5516 5521 5528 5533 5536 5539 5544 5547 5551 5555 5558 5560 5562 5562 5562 5562 5560 5559 5559 5555 5552 5550 5550 5553 5556
5276 5282 5291 5297 5305 5314 5322 5330 5337 5345 5353 5361 5369 5377 5385 5392 5400 5407 5416 5425 5440 5454 5467 5475 5481 5488 5495 5500 5504 5510 5518 5523 5527 5532 5537 5540 5544 5548 5551 5554 5557 5558 5558 5559 5559 5558 5559 5559 5559 5558 5557 5558 5560 5563
5275 5282 5290 5297 5304 5313 5319 5325 5334 5341 5350 5357 5365 5373 5378 5387 5395 5401 5410 5427 5439 5448 5459 5467 5474 5482 5490 5495 5500 5507 5513 5518 5523 5527 5532 5535 5540 5545 5549 5552 5553 5554 5555 5557 5557 5558 5559 5560 5560 5561 5562 5564 5565 5567
5278 5283 5289 5296 5303 5309 5316 5323 5329 5338 5347 5353 5360 5367 5375 5381 5388 5397 5410 5425 5437 5444 5454 5463 5470 5477 5484 5490 5496 5501 5508 5512 5516 5523 5529 5533 5537 5541 5545 5549 5551 5552 5553 5554 5556 5557 5559 5560 5562 5563 5564 5566 5568 5570
5279 5283 5289 5293 5300 5308 5314 5318 5325 5334 5343 5352 5358 5363 5370 5377 5386 5398 5410 5421 5430 5440 5449 5455 5463 5471 5477 5481 5488 5495 5503 5507 5513 5518 5523 5528 5534 5538 5542 5546 5549 5550 5551 5552 5554 5557 5560 5561 5563 5565 5566 5567 5569 5571
5277 5283 5288 5294 5301 5306 5312 5320 5326 5333 5340 5349 5355 5363 5370 5377 5383 5391 5405 5416 5427 5437 5445 5454 5460 5466 5471 5478 5484 5492 5497 5502 5508 5514 5519 5525 5529 5533 5538 5543 5546 5549 5550 5550 5553 5556 5558 5561 5563 5565 5566 5568 5570 5572
5272 5278 5285 5292 5297 5307 5314 5320 5327 5333 5339 5346 5354 5362 5365 5370 5377 5389 5400 5413 5423 5432 5440 5444 5451 5459 5467 5472 5479 5485 5491 5497 5503 5506 5511 5518 5523 5527 5533 5539 5543 5547 5548 5549 5551 5553 5556 5559 5562 5564 5566 5567 5569 5571
5273 5279 5284 5292 5297 5307 5314 5321 5326 5331 5336 5343 5351 5357 5361 5367 5377 5385 5395 5409 5417 5424 5431 5438 5445 5453 5459 5465 5472 5479 5485 5491 5496 5500 5505 5510 5517 5523 5529 5535 5541 5545 5547 5549 5550 5552 5553 5556 5558 5561 5563 5565 5567 5568
5275 5279 5284 5291 5297 5304 5311 5318 5323 5328 5335 5342 5350 5356 5362 5368 5373 5380 5389 5399 5409 5418 5427 5434 5442 5449 5455 5459 5464 5472 5479 5485 5490 5497 5504 5511 5517 5523 5528 5533 5537 5540 5543 5547 5550 5552 5553 5555 5556 5557 5559 5561 5564 5566
5277 5281 5285 5290 5296 5302 5309 5315 5322 5327 5333 5340 5346 5352 5358 5364 5369 5373 5380 5390 5401 5412 5422 5429 5435 5442 5450 5455 5461 5469 5475 5480 5487 5494 5499 5506 5512 5517 5521 5526 5530 5535 5539 5543 5547 5550 5552 5554 5555 5557 5558 5560 5561 5563
5277 5282 5286 5291 5297 5301 5307 5312 5316 5321 5325 5331 5338 5346 5351 5357 5363 5369 5376 5384 5393 5404 5415 5423 5429 5436 5442 5450 5457 5464 5470 5476 5482 5488 5493 5495 5498 5506 5512 5519 5524 5529 5533 5538 5542 5545 5548 5550 5552 5555 5556 5558 5559 5560
5275 5281 5286 5290 5296 5300 5304 5308 5312 5316 5320 5325 5333 5340 5347 5353 5359 5364 5371 5379 5385 5395 5405 5414 5422 5430 5437 5446 5451 5458 5464 5470 5477 5482 5487 5491 5498 5505 5510 5514 5519 5523 5528 5532 5536 5539 5542 5545 5548 5550 5552 5553 5555 5557
5272 5278 5284 5288 5293 5298 5302 5306 5310 5312 5314 5320 5325 5332 5339 5349 5354 5360 5365 5372 5380 5390 5399 5406 5415 5423 5430 5437 5444 5452 5458 5464 5469 5473 5477 5483 5491 5497 5502 5508 5513 5518 5522 5526 5530 5533 5536 5539 5542 5544 5547 5549 5551 5552